HST 1 20580U 90037B 26253.98101816 .00005026 00000+0 15256-3 0 9990 2 20580 28.4727 213.8092 0001729 25.7255 334.3427 15.31609922801730 POLAR 1 23802U 96013A 26252.76393034 .00000120 00000+0 00000+0 0 9997 2 23802 79.9999 226.0388 6549506 206.1511 95.9423 1.29845845145951 SWAS 1 25560U 98071A 26253.81076457 .00002856 00000+0 18145-3 0 9991 2 25560 69.8985 6.6331 0003437 151.2717 208.8638 15.10072067510195 CXO 1 25867U 99040B 26256.64635052 .00000750 00000+0 00000+0 0 9992 2 25867 57.3946 114.3237 7696491 309.4555 0.4510 0.37808156 17655 XMM-NEWTON 1 25989U 99066A 26255.11572882 .00000042 00000+0 00000+0 0 9991 2 25989 64.0266 281.8601 4649505 63.3658 0.1123 0.50126747 23441 TERRA 1 25994U 99068A 26253.82936032 .00000234 00000+0 56607-4 0 9998 2 25994 97.9377 299.9470 0001659 358.5538 89.5238 14.61157891422119 TIMED 1 26998U 01055B 26253.77578221 .00000852 00000+0 80611-4 0 9996 2 26998 74.0664 62.6630 0001990 238.7042 121.3948 14.95447823343613 CORIOLIS 1 27640U 03001A 26253.95241282 .00000077 00000+0 56965-4 0 9992 2 27640 98.7167 259.5425 0013432 330.2900 29.7512 14.19965518226398 SORCE 1 27651U 03004A 26253.40374706 .00002190 00000+0 16566-3 0 9995 2 27651 39.9903 135.3329 0018667 301.2468 58.6498 15.04091661284731 MOST 1 27843U 03031D 26253.60208365 .00000043 00000+0 39560-4 0 9992 2 27843 98.7082 260.1486 0010050 12.4867 347.6558 14.21337116202844 SCISAT 1 1 27858U 03036A 26253.71557100 .00000424 00000+0 58676-4 0 9991 2 27858 73.9323 1.3937 0006494 36.5448 323.6171 14.81534077244110 SWIFT 1 28485U 04047A 26252.21776872 .00132271 00000+0 68237-3 0 9993 2 28485 20.5506 252.2709 0001595 126.4668 233.5927 15.79341018200111 HINODE (SOLAR-B) 1 29479U 06041A 26253.61989027 .00000384 00000+0 74222-4 0 9997 2 29479 98.0553 268.5184 0017907 21.4502 338.7450 14.68716973 67415 SHIJIAN-6 02A (SJ-6 02A) 1 29505U 06046A 26253.88592558 .00003472 00000+0 17537-3 0 9996 2 29505 97.6296 295.6150 0002735 168.3513 191.7784 15.17767213 85262 SHIJIAN-6 02B (SJ-6 02B) 1 29506U 06046B 26253.91721008 .00000211 00000+0 21006-4 0 9990 2 29506 97.7002 282.3953 0016034 137.5466 222.7001 15.01475462 83603 FGRST (GLAST) 1 33053U 08029A 26253.60140822 .00002590 00000+0 89460-4 0 9990 2 33053 25.5834 331.2324 0007492 253.5402 106.4313 15.24331325 8739 SDO 1 36395U 10005A 26253.53447623 -.00000070 00000+0 00000+0 0 9990 2 36395 34.8273 85.0427 0001795 71.5200 283.7796 1.00274760 60913 CRYOSAT 2 1 36508U 10013A 26253.95600072 .00000061 00000+0 14309-4 0 9991 2 36508 92.0286 298.1321 0002425 84.6212 275.5272 14.51904092870520 X-SAT 1 37389U 11015C 26253.94573729 .00000037 00000+0 33254-4 0 9992 2 37389 98.3611 226.9248 0015270 90.5123 269.7807 14.25227350799890 GCOM-W1 (SHIZUKU) 1 38337U 12025A 26253.73223293 .00000286 00000+0 73593-4 0 9999 2 38337 98.2061 193.0037 0001476 87.6872 333.7136 14.57131027761495 NUSTAR 1 38358U 12031A 26254.00004630 .00014228 00000+0 80703-3 0 9993 2 38358 6.0265 110.0749 0008508 300.7908 3.5343 15.09499058 1300 NEOSSAT 1 39089U 13009D 26253.92311850 .00000108 00000+0 52042-4 0 9994 2 39089 98.4225 71.9456 0010890 357.4649 2.6480 14.35852190709047 BRITE-AUSTRIA 1 39091U 13009F 26253.94863594 .00000102 00000+0 49335-4 0 9991 2 39091 98.4045 71.2918 0009945 351.0964 9.0044 14.36570323709363 IRIS 1 39197U 13033A 26253.54916567 .00000672 00000+0 82816-4 0 9993 2 39197 97.9283 92.5547 0025372 42.0396 318.2760 14.86029701713055 HISAKI (SPRINT-A) 1 39253U 13049A 26253.92924172 .00000112 00000+0 65563-4 0 9995 2 39253 29.7188 144.0882 0136495 351.8839 7.9534 13.55550405643061 CASSIOPE 1 39265U 13055A 26253.94100514 .00041675 -51336-6 41676-3 0 9996 2 39265 80.9143 322.1096 0270725 131.9654 230.5001 15.31246661680760 STSAT-3 1 39422U 13066G 26253.93039566 .00002575 00000+0 19489-3 0 9997 2 39422 97.6299 222.4884 0010668 102.1676 258.0744 15.03159508697085 SWARM B 1 39451U 13067A 26253.94731412 .00002383 00000+0 83329-4 0 9992 2 39451 87.7449 316.2779 0003457 91.9997 268.1649 15.29020984696345 SWARM A 1 39452U 13067B 26253.91927545 .00009217 00000+0 15989-3 0 9993 2 39452 87.3349 24.3841 0002330 98.5660 261.5865 15.50690984719538 SWARM C 1 39453U 13067C 26253.91916231 .00008680 00000+0 15053-3 0 9999 2 39453 87.3353 22.9669 0002348 98.7127 261.4400 15.50692435719497 BRITE-CA1 (TORONTO) 1 40020U 14033L 26253.30433588 .00000439 00000+0 73543-4 0 9990 2 40020 97.9848 20.7181 0078494 5.4528 354.7516 14.72808682654741 OCO 2 1 40059U 14035A 26253.92311599 .00000245 00000+0 64507-4 0 9994 2 40059 98.2060 193.9260 0001680 81.0576 279.0812 14.57087222648530 BRITE-PL2 (HEWELIUSZ) 1 40119U 14049B 26253.32409096 .00001639 00000+0 15572-3 0 9995 2 40119 97.9161 6.0248 0013915 181.2427 178.8761 14.94842742654169 MMS 1 1 40482U 15011A 26254.00004630 -.00001873 00000+0 00000+0 0 9996 2 40482 72.9002 347.8005 8256357 169.3703 52.0582 0.28298014 1403 MMS 2 1 40483U 15011B 26254.00004630 -.00001874 00000+0 00000+0 0 9998 2 40483 72.9053 347.7987 8259262 169.3765 52.0225 0.28293113 1403 MMS 3 1 40484U 15011C 26254.00004630 -.00001874 00000+0 00000+0 0 9999 2 40484 72.9047 347.8108 8257636 169.3851 51.9961 0.28293064 1402 MMS 4 1 40485U 15011D 26254.00004630 -.00001874 00000+0 00000+0 0 9990 2 40485 72.8985 347.7947 8257704 169.3950 51.9923 0.28293050 1402 ASTROSAT 1 40930U 15052A 26253.86130897 .00001348 00000+0 82025-4 0 9995 2 40930 5.9969 258.6153 0007840 182.4979 177.5110 14.82636193592567 DAMPE 1 41173U 15078A 26253.99119804 .00001355 00000+0 47811-4 0 9994 2 41173 97.4596 259.9082 0013136 125.5186 234.7282 15.30970876597673 PISAT 1 41784U 16059B 26253.55669646 .00000628 00000+0 11435-3 0 9992 2 41784 97.8244 250.3727 0027600 294.1791 65.6531 14.69118348532274 HXMT (HUIYAN) 1 42758U 17034A 26253.95765481 .00003626 00000+0 17883-3 0 9990 2 42758 43.0143 65.2125 0032106 327.4099 32.4768 15.19101908510708 FLYING LAPTOP 1 42831U 17042G 26253.96042777 .00002272 00000+0 17937-3 0 9994 2 42831 97.4991 46.4135 0016075 188.8360 171.2585 15.01576837499324 ZHANGHENG 1-01 (CSES-1) 1 43194U 18015C 26253.86951911 .00004773 00000+0 22073-3 0 9991 2 43194 97.6949 61.2758 0013895 344.2655 15.8146 15.20576814477665 SALSAT 1 46495U 20068K 26253.60538708 .00005584 00000+0 18986-3 0 9995 2 46495 97.8883 261.9585 0009620 13.6942 346.4557 15.30869248328420 IXPE 1 49954U 21121A 26254.00004630 .00008724 00000+0 45342-3 0 9991 2 49954 0.2317 27.9778 0007252 296.7169 340.6484 15.10939239 5244 SMILE 1 69123U 26109A 26251.80768776 .00000485 00000+0 00000+0 0 9999 2 69123 70.0169 206.2692 8186953 285.8683 5.3377 0.47517332 347